Flag Weather past 2 weeks in Castrop-Rauxel, North Rhine-Westphalia, Germany

Now
48 °F

Light rain. Passing clouds.


Feels Like: 46 °F
Forecast: 35 / 47 °F
Wind: 5 mph from West

Location: Dortmund / Wickede

Current Time: Nov 24, 2014 at 6:27:47 AM

Latest Report: Nov 24, 2014 at 5:50 AM


Visibility: N/A

Pressure: 30.09 "Hg

Humidity: 87%

Dew point: 45 °F

Location of Castrop-RauxelLocation

Historic Weather in Castrop-Rauxel — Graph

°F

Castrop-Rauxel temperature yesterday

Maximum temperature yesterday: 61 °F (at 11:20 AM)
Minimum temperature yesterday: 48 °F (at 8:50 AM)
Average temperature yesterday: 56 °F

Past Weeks' High & Low Weather Summary

 TemperatureHumidityPressure
High61 °F (Nov 23, 11:20 AM)93% (Nov 11, 7:50 AM)30.33 "Hg (Nov 11, 7:50 AM)
Low32 °F (Nov 21, 5:20 AM)51% (Nov 9, 2:20 PM)29.50 "Hg (Nov 16, 12:50 PM)
Average48 °F80%29.87 "Hg
* Reported Nov 9 5:20 AM — Nov 24 5:20 AM, Castrop-Rauxel, Weather by CustomWeather, © 2014

Note: Actual official high and low records may vary slightly from our data, if they occured in-between our weather recording intervals... More about our weather records

Advertising

Castrop-Rauxel weather history for previous 24 hours

 ConditionsComfort  
Time TempWeatherWind HumidityBarometerVisibility
5:20 AM
Nov 24
48 °FPassing clouds.5 mph87%30.09 "HgN/A
10:50 PM
Nov 23
54 °FClear.14 mph67%29.98 "Hg10 mi
10:20 PM54 °FClear.13 mph67%29.98 "Hg10 mi
9:20 PM54 °FClear.15 mph67%29.95 "Hg10 mi
8:50 PM55 °FClear.16 mph63%29.95 "Hg10 mi
8:20 PM57 °FClear.15 mph59%29.95 "Hg10 mi
7:50 PM55 °FPassing clouds.6 mph67%29.98 "HgN/A
7:20 PM52 °FPassing clouds.6 mph72%29.98 "HgN/A
6:50 PM54 °FClear.7 mph72%29.98 "Hg10 mi
6:20 PM57 °FClear.13 mph63%29.98 "Hg10 mi
5:50 PM57 °FClear.10 mph67%29.98 "Hg10 mi
5:20 PM57 °FClear.13 mph67%29.98 "Hg10 mi
4:50 PM57 °FClear.10 mph67%29.98 "Hg10 mi
4:20 PM57 °FSunny.13 mph67%29.98 "Hg10 mi
3:50 PM59 °FSunny.12 mph63%29.98 "Hg10 mi
3:20 PM59 °FPassing clouds.8 mph63%30.01 "HgN/A
2:50 PM59 °FSunny.10 mph63%30.01 "Hg10 mi
2:20 PM61 °FSunny.12 mph59%30.01 "Hg10 mi
1:50 PM61 °FSunny.10 mph59%30.04 "Hg10 mi
1:20 PM61 °FSunny.8 mph59%30.04 "Hg10 mi
12:50 PM61 °FSunny.7 mph59%30.07 "Hg10 mi
12:20 PM61 °FSunny.10 mph59%30.07 "Hg10 mi
11:50 AM59 °FPassing clouds.9 mph63%30.07 "HgN/A
11:20 AM61 °FSunny.6 mph55%30.07 "Hg10 mi
10:50 AM59 °FPassing clouds.6 mph59%30.07 "HgN/A
10:20 AM59 °FSunny.2 mph68%30.07 "Hg10 mi
9:50 AM55 °FPassing clouds.5 mph67%30.07 "HgN/A
9:20 AM54 °FPassing clouds.5 mph77%30.07 "HgN/A
8:50 AM48 °FPassing clouds.5 mph82%30.09 "HgN/A
8:20 AM50 °FSunny.6 mph76%30.07 "Hg10 mi
7:50 AM50 °FClear.No wind76%30.07 "Hg10 mi
7:20 AM52 °FClear.10 mph77%30.07 "Hg10 mi
6:50 AM54 °FClear.9 mph72%30.07 "Hg10 mi
6:20 AM54 °FClear.13 mph72%30.07 "Hg10 mi
Weather by CustomWeather, © 2014

See weather overviewHow to use our weather pages